| time (UTC) | temp C | wind direction | speed KPH | gust KPH | rain 1hr cm | rain 24hr cm | rain mn cm | humidity % | barometer mb |
| 20260507010039 | 16 | 355 | 4.8 | 16.1 | 0.00 | 0.36 | 0.36 | 24 | 1014.7 |
| 20260507004518 | 16 | 342 | 8.0 | 17.7 | 0.00 | 0.36 | 0.36 | 24 | 1014.8 |
| 20260507003012 | 16 | 311 | 8.0 | 19.3 | 0.00 | 0.36 | 0.36 | 24 | 1014.8 |
| 20260507001511 | 16 | 355 | 11.3 | 17.7 | 0.00 | 0.36 | 0.36 | 23 | 1014.8 |
| 20260507000002 | 16 | 328 | 11.3 | 20.9 | 0.00 | 0.36 | 0.36 | 23 | 1014.7 |
| 20260506234601 | 16 | 330 | 12.9 | 22.5 | 0.00 | 0.36 | 0.36 | 24 | 1014.7 |
| 20260506233045 | 16 | 309 | 17.7 | 27.4 | 0.00 | 0.36 | 0.36 | 25 | 1014.7 |
| 20260506231538 | 17 | 345 | 11.3 | 22.5 | 0.00 | 0.36 | 0.36 | 24 | 1014.9 |
| 20260506230031 | 17 | 329 | 11.3 | 24.1 | 0.00 | 0.36 | 0.36 | 24 | 1014.7 |
| 20260506224527 | 17 | 327 | 14.5 | 27.4 | 0.00 | 0.36 | 0.36 | 25 | 1014.9 |
| 20260506223013 | 17 | 295 | 14.5 | 27.4 | 0.00 | 0.36 | 0.36 | 26 | 1015.2 |
| 20260506221504 | 16 | 256 | 9.7 | 35.4 | 0.00 | 0.36 | 0.36 | 27 | 1015.4 |
| 20260506220108 | 16 | 271 | 19.3 | 29.0 | 0.00 | 0.36 | 0.36 | 27 | 1015.3 |
| 20260506214556 | 16 | 272 | 12.9 | 35.4 | 0.00 | 0.36 | 0.36 | 29 | 1015.4 |
| 20260506213048 | 16 | 346 | 8.0 | 29.0 | 0.00 | 0.36 | 0.36 | 28 | 1015.6 |
| 20260506211550 | 16 | 330 | 12.9 | 22.5 | 0.00 | 0.36 | 0.36 | 28 | 1015.8 |
| 20260506210030 | 16 | 269 | 16.1 | 25.7 | 0.00 | 0.36 | 0.36 | 28 | 1015.6 |
| 20260506204520 | 16 | 316 | 16.1 | 30.6 | 0.00 | 0.36 | 0.36 | 30 | 1015.8 |
| 20260506203013 | 15 | 314 | 8.0 | 25.7 | 0.00 | 0.36 | 0.36 | 32 | 1015.6 |
| 20260506201528 | 15 | 326 | 16.1 | 25.7 | 0.00 | 0.36 | 0.36 | 32 | 1015.7 |
| 20260506200019 | 15 | 9 | 16.1 | 33.8 | 0.00 | 0.36 | 0.36 | 31 | 1015.7 |
| 20260506194513 | 15 | 348 | 17.7 | 35.4 | 0.00 | 0.36 | 0.36 | 30 | 1015.5 |
| 20260506193002 | 15 | 327 | 16.1 | 27.4 | 0.00 | 0.36 | 0.36 | 32 | 1015.6 |
| 20260506191600 | 14 | 325 | 16.1 | 27.4 | 0.00 | 0.36 | 0.36 | 32 | 1015.6 |
| 20260506190051 | 14 | 321 | 16.1 | 25.7 | 0.00 | 0.36 | 0.36 | 33 | 1015.6 |
| 20260506184541 | 13 | 273 | 14.5 | 35.4 | 0.00 | 0.36 | 0.36 | 32 | 1015.7 |
| 20260506183036 | 13 | 335 | 20.9 | 30.6 | 0.00 | 0.36 | 0.36 | 31 | 1015.9 |
| 20260506181521 | 13 | 5 | 14.5 | 30.6 | 0.00 | 0.36 | 0.36 | 35 | 1015.6 |
| 20260506180011 | 12 | 329 | 14.5 | 35.4 | 0.00 | 0.36 | 0.36 | 33 | 1015.8 |
| 20260506174601 | 12 | 332 | 19.3 | 33.8 | 0.00 | 0.36 | 0.36 | 31 | 1015.8 |
| 20260506173117 | 12 | 314 | 19.3 | 30.6 | 0.00 | 0.36 | 0.36 | 34 | 1015.7 |
| 20260506171539 | 12 | 345 | 17.7 | 37.0 | 0.00 | 0.36 | 0.36 | 34 | 1015.5 |
| 20260506170032 | 11 | 320 | 20.9 | 37.0 | 0.00 | 0.36 | 0.36 | 30 | 1015.2 |
| 20260506164521 | 11 | 355 | 22.5 | 32.2 | 0.00 | 0.36 | 0.36 | 30 | 1014.9 |
| 20260506163009 | 10 | 331 | 17.7 | 33.8 | 0.00 | 0.36 | 0.36 | 36 | 1014.7 |
| 20260506161505 | 10 | 333 | 24.1 | 40.2 | 0.00 | 0.36 | 0.36 | 40 | 1014.5 |
| 20260506160009 | 9 | 338 | 25.7 | 38.6 | 0.00 | 0.36 | 0.36 | 40 | 1014.1 |
| 20260506154519 | 8 | 319 | 20.9 | 40.2 | 0.00 | 0.38 | 0.36 | 46 | 1013.9 |
| 20260506153109 | 8 | 327 | 14.5 | 33.8 | 0.00 | 0.38 | 0.36 | 49 | 1013.7 |
| 20260506151517 | 8 | 355 | 22.5 | 38.6 | 0.00 | 0.38 | 0.36 | 47 | 1013.5 |
| 20260506150005 | 7 | 334 | 19.3 | 33.8 | 0.00 | 0.38 | 0.36 | 48 | 1013.2 |
| 20260506144554 | 7 | 329 | 22.5 | 33.8 | 0.00 | 0.38 | 0.36 | 55 | 1013.3 |
| 20260506143052 | 7 | 328 | 16.1 | 24.1 | 0.00 | 0.38 | 0.36 | 62 | 1013.0 |
| 20260506141544 | 6 | 342 | 9.7 | 17.7 | 0.00 | 0.38 | 0.36 | 66 | 1013.0 |
| 20260506140044 | 6 | 5 | 8.0 | 16.1 | 0.00 | 0.38 | 0.36 | 69 | 1012.8 |
| 20260506134540 | 5 | 346 | 6.4 | 14.5 | 0.00 | 0.38 | 0.36 | 74 | 1012.6 |
| 20260506133030 | 4 | 304 | 3.2 | 9.7 | 0.00 | 0.38 | 0.36 | 78 | 1012.5 |
| 20260506131539 | 3 | 253 | 3.2 | 6.4 | 0.00 | 0.38 | 0.36 | 78 | 1012.0 |
| 20260506130008 | 3 | 242 | 1.6 | 3.2 | 0.00 | 0.38 | 0.36 | 78 | 1011.8 |
| 20260506124602 | 3 | 238 | 3.2 | 8.0 | 0.00 | 0.38 | 0.36 | 77 | 1011.4 |
| 20260506123058 | 4 | 238 | 3.2 | 8.0 | 0.00 | 0.38 | 0.36 | 77 | 1011.2 |
| 20260506121549 | 3 | 244 | 6.4 | 12.9 | 0.00 | 0.38 | 0.36 | 77 | 1011.3 |
| 20260506120049 | 4 | 240 | 4.8 | 11.3 | 0.00 | 0.38 | 0.36 | 77 | 1011.1 |
| 20260506114547 | 4 | 240 | 3.2 | 12.9 | 0.00 | 0.38 | 0.36 | 77 | 1011.0 |
| 20260506113047 | 4 | 246 | 3.2 | 12.9 | 0.00 | 0.38 | 0.36 | 78 | 1011.1 |
| 20260506111539 | 4 | 335 | 0.0 | 9.7 | 0.00 | 0.38 | 0.36 | 79 | 1011.0 |
| 20260506110106 | 4 | 298 | 3.2 | 9.7 | 0.00 | 0.38 | 0.36 | 80 | 1011.0 |
| 20260506104553 | 3 | 313 | 1.6 | 8.0 | 0.00 | 0.48 | 0.36 | 80 | 1011.0 |
| 20260506103048 | 3 | 336 | 9.7 | 22.5 | 0.00 | 0.48 | 0.36 | 81 | 1010.7 |
| 20260506101546 | 3 | 355 | 8.0 | 20.9 | 0.00 | 0.48 | 0.36 | 82 | 1010.4 |
| 20260506100038 | 3 | 345 | 6.4 | 14.5 | 0.00 | 0.48 | 0.36 | 83 | 1010.0 |
| 20260506094531 | 4 | 355 | 8.0 | 19.3 | 0.05 | 0.48 | 0.36 | 83 | 1009.5 |
| 20260506093021 | 4 | 33 | 4.8 | 14.5 | 0.25 | 0.48 | 0.36 | 83 | 1009.3 |
| 20260506091512 | 5 | 14 | 0.0 | 8.0 | 0.33 | 0.48 | 0.36 | 82 | 1008.9 |
| 20260506090100 | 5 | 39 | 9.7 | 20.9 | 0.36 | 0.48 | 0.36 | 81 | 1008.5 |
| 20260506084548 | 6 | 35 | 9.7 | 25.7 | 0.30 | 0.43 | 0.30 | 78 | 1008.4 |
| 20260506083037 | 7 | 345 | 16.1 | 38.6 | 0.10 | 0.23 | 0.10 | 76 | 1007.8 |
| 20260506081531 | 8 | 63 | 1.6 | 6.4 | 0.00 | 0.13 | 0.00 | 76 | 1005.9 |
| 20260506073013 | 9 | 58 | 1.6 | 6.4 | 0.00 | 0.13 | 0.00 | 73 | 1005.7 |
| 20260506071502 | 10 | 69 | 3.2 | 9.7 | 0.00 | 0.13 | 0.00 | 72 | 1005.9 |
| 20260506061520 | 10 | 240 | 1.6 | 12.9 | 0.00 | 0.13 | 0.00 | 65 | 1005.4 |
| 20260506060132 | 10 | 223 | 9.7 | 29.0 | 0.00 | 0.13 | 0.00 | 63 | 1005.3 |
| 20260506044615 | 9 | 205 | 6.4 | 14.5 | 0.00 | 0.13 | 0.13 | 63 | 1004.0 |
| 20260506043051 | 9 | 220 | 6.4 | 14.5 | 0.00 | 0.13 | 0.13 | 63 | 1004.0 |
| 20260506041547 | 9 | 190 | 8.0 | 14.5 | 0.00 | 0.13 | 0.13 | 64 | 1004.0 |
| 20260506040036 | 9 | 205 | 4.8 | 11.3 | 0.00 | 0.13 | 0.13 | 63 | 1004.0 |
| 20260506034527 | 10 | 198 | 4.8 | 11.3 | 0.00 | 0.13 | 0.13 | 62 | 1003.9 |
| 20260506033018 | 10 | 208 | 4.8 | 14.5 | 0.00 | 0.13 | 0.13 | 61 | 1003.8 |
| 20260506031510 | 10 | 204 | 6.4 | 12.9 | 0.00 | 0.13 | 0.13 | 59 | 1003.5 |
| 20260506030018 | 11 | 185 | 6.4 | 14.5 | 0.00 | 0.13 | 0.13 | 57 | 1003.3 |
| 20260506024603 | 11 | 183 | 9.7 | 16.1 | 0.00 | 0.13 | 0.13 | 56 | 1003.1 |
| 20260506023055 | 12 | 180 | 12.9 | 19.3 | 0.00 | 0.13 | 0.13 | 54 | 1002.9 |
| 20260506021543 | 12 | 155 | 9.7 | 17.7 | 0.00 | 0.13 | 0.13 | 53 | 1002.8 |
| 20260506020035 | 13 | 148 | 11.3 | 20.9 | 0.00 | 0.13 | 0.13 | 51 | 1002.7 |
| 20260506014537 | 14 | 169 | 14.5 | 19.3 | 0.00 | 0.13 | 0.13 | 50 | 1002.7 |
| 20260506013035 | 15 | 174 | 12.9 | 20.9 | 0.00 | 0.13 | 0.13 | 48 | 1002.7 |
| 20260506011525 | 15 | 190 | 6.4 | 16.1 | 0.00 | 0.13 | 0.13 | 48 | 1002.7 |